| time (UTC) | temp F | wind direction | speed MPH | gust MPH | rain 1hr in | rain 24hr in | rain mn in | humidity % | barometer mb |
| 20260901205512 | 93 | 221 | 11.0 | 20.0 | 0.00 | 0.00 | 0.00 | 29 | 1017.8 |
| 20260901205012 | 93 | 195 | 7.0 | 12.0 | 0.00 | 0.00 | 0.00 | 31 | 1017.8 |
| 20260901204508 | 95 | 187 | 14.0 | 22.0 | 0.00 | 0.00 | 0.00 | 30 | 1017.9 |
| 20260901204003 | 94 | 212 | 14.0 | 17.0 | 0.00 | 0.00 | 0.00 | 31 | 1018.0 |
| 20260901203458 | 92 | 209 | 9.0 | 13.0 | 0.00 | 0.00 | 0.00 | 32 | 1018.0 |
| 20260901202958 | 95 | 180 | 10.0 | 18.0 | 0.00 | 0.00 | 0.00 | 30 | 1018.1 |
| 20260901202453 | 94 | 207 | 15.0 | 19.0 | 0.00 | 0.00 | 0.00 | 31 | 1018.4 |
| 20260901201943 | 94 | 190 | 11.0 | 20.0 | 0.00 | 0.00 | 0.00 | 31 | 1018.4 |
| 20260901201438 | 92 | 220 | 9.0 | 12.0 | 0.00 | 0.00 | 0.00 | 32 | 1018.5 |
| 20260901200937 | 93 | 174 | 11.0 | 12.0 | 0.00 | 0.00 | 0.00 | 31 | 1018.2 |
| 20260901200427 | 92 | 171 | 12.0 | 16.0 | 0.00 | 0.00 | 0.00 | 33 | 1018.6 |
| 20260901195926 | 93 | 170 | 11.0 | 15.0 | 0.00 | 0.00 | 0.00 | 32 | 1018.6 |
| 20260901195425 | 94 | 168 | 13.0 | 18.0 | 0.00 | 0.00 | 0.00 | 31 | 1018.7 |
| 20260901194920 | 95 | 161 | 12.0 | 19.0 | 0.00 | 0.00 | 0.00 | 31 | 1018.7 |
| 20260901194415 | 93 | 213 | 20.0 | 24.0 | 0.00 | 0.00 | 0.00 | 32 | 1018.5 |
| 20260901193911 | 92 | 186 | 8.0 | 15.0 | 0.00 | 0.00 | 0.00 | 33 | 1018.7 |
| 20260901193410 | 93 | 179 | 7.0 | 16.0 | 0.00 | 0.00 | 0.00 | 32 | 1018.8 |
| 20260901192909 | 92 | 204 | 12.0 | 15.0 | 0.00 | 0.00 | 0.00 | 33 | 1018.7 |
| 20260901192405 | 91 | 185 | 13.0 | 19.0 | 0.00 | 0.00 | 0.00 | 33 | 1019.0 |
| 20260901191901 | 93 | 160 | 9.0 | 10.0 | 0.00 | 0.00 | 0.00 | 32 | 1019.0 |
| 20260901191356 | 93 | 202 | 13.0 | 20.0 | 0.00 | 0.00 | 0.00 | 32 | 1019.2 |
| 20260901190852 | 93 | 185 | 16.0 | 19.0 | 0.00 | 0.00 | 0.00 | 32 | 1019.1 |
| 20260901190347 | 92 | 213 | 14.0 | 19.0 | 0.00 | 0.00 | 0.00 | 33 | 1019.4 |
| 20260901185845 | 92 | 186 | 17.0 | 18.0 | 0.00 | 0.00 | 0.00 | 33 | 1019.2 |
| 20260901185344 | 91 | 180 | 14.0 | 17.0 | 0.00 | 0.00 | 0.00 | 33 | 1019.2 |
| 20260901184839 | 93 | 195 | 9.0 | 17.0 | 0.00 | 0.00 | 0.00 | 32 | 1019.6 |
| 20260901184335 | 91 | 164 | 11.0 | 13.0 | 0.00 | 0.00 | 0.00 | 34 | 1019.7 |
| 20260901183831 | 93 | 180 | 11.0 | 21.0 | 0.00 | 0.00 | 0.00 | 33 | 1019.6 |
| 20260901183330 | 91 | 160 | 7.0 | 16.0 | 0.00 | 0.00 | 0.00 | 34 | 1019.5 |
| 20260901182826 | 93 | 153 | 8.0 | 18.0 | 0.00 | 0.00 | 0.00 | 31 | 1019.7 |
| 20260901182326 | 93 | 187 | 17.0 | 20.0 | 0.00 | 0.00 | 0.00 | 33 | 1019.8 |
| 20260901181821 | 92 | 152 | 8.0 | 13.0 | 0.00 | 0.00 | 0.00 | 32 | 1020.0 |
| 20260901181315 | 92 | 190 | 11.0 | 17.0 | 0.00 | 0.00 | 0.00 | 33 | 1020.0 |
| 20260901180809 | 92 | 201 | 14.0 | 18.0 | 0.00 | 0.00 | 0.00 | 33 | 1020.0 |
| 20260901180308 | 91 | 151 | 15.0 | 18.0 | 0.00 | 0.00 | 0.00 | 33 | 1020.0 |
| 20260901175807 | 92 | 165 | 12.0 | 17.0 | 0.00 | 0.00 | 0.00 | 32 | 1020.1 |
| 20260901175305 | 90 | 178 | 7.0 | 12.0 | 0.00 | 0.00 | 0.00 | 37 | 1019.9 |
| 20260901174757 | 89 | 189 | 5.0 | 15.0 | 0.00 | 0.00 | 0.00 | 35 | 1020.2 |
| 20260901174253 | 91 | 202 | 15.0 | 19.0 | 0.00 | 0.00 | 0.00 | 34 | 1020.1 |
| 20260901173748 | 88 | 194 | 11.0 | 15.0 | 0.00 | 0.00 | 0.00 | 38 | 1019.9 |
| 20260901173243 | 89 | 205 | 12.0 | 16.0 | 0.00 | 0.00 | 0.00 | 38 | 1020.2 |
| 20260901172740 | 90 | 208 | 13.0 | 18.0 | 0.00 | 0.00 | 0.00 | 38 | 1020.4 |
| 20260901172238 | 89 | 224 | 8.0 | 16.0 | 0.00 | 0.00 | 0.00 | 39 | 1020.4 |
| 20260901171736 | 89 | 212 | 10.0 | 19.0 | 0.00 | 0.00 | 0.00 | 38 | 1020.2 |
| 20260901171236 | 91 | 175 | 9.0 | 14.0 | 0.00 | 0.00 | 0.00 | 38 | 1020.5 |
| 20260901170735 | 89 | 180 | 11.0 | 18.0 | 0.00 | 0.00 | 0.00 | 37 | 1020.4 |
| 20260901170230 | 89 | 234 | 10.0 | 12.0 | 0.00 | 0.00 | 0.00 | 39 | 1020.4 |
| 20260901165728 | 88 | 196 | 12.0 | 17.0 | 0.00 | 0.00 | 0.00 | 39 | 1020.1 |
| 20260901165223 | 89 | 181 | 11.0 | 19.0 | 0.00 | 0.00 | 0.00 | 40 | 1020.4 |
| 20260901164720 | 88 | 215 | 13.0 | 20.0 | 0.00 | 0.00 | 0.00 | 41 | 1020.2 |
| 20260901164215 | 89 | 185 | 11.0 | 20.0 | 0.00 | 0.00 | 0.00 | 42 | 1020.2 |
| 20260901163710 | 89 | 199 | 13.0 | 20.0 | 0.00 | 0.00 | 0.00 | 42 | 1020.2 |
| 20260901163209 | 87 | 199 | 11.0 | 16.0 | 0.00 | 0.00 | 0.00 | 44 | 1020.2 |
| 20260901162705 | 87 | 205 | 10.0 | 20.0 | 0.00 | 0.00 | 0.00 | 45 | 1020.4 |
| 20260901162204 | 87 | 221 | 17.0 | 19.0 | 0.00 | 0.00 | 0.00 | 45 | 1020.1 |
| 20260901161702 | 86 | 208 | 15.0 | 21.0 | 0.00 | 0.00 | 0.00 | 46 | 1020.2 |
| 20260901161157 | 86 | 217 | 11.0 | 22.0 | 0.00 | 0.00 | 0.00 | 46 | 1020.1 |
| 20260901160654 | 85 | 218 | 17.0 | 24.0 | 0.00 | 0.00 | 0.00 | 47 | 1020.1 |
| 20260901160149 | 86 | 212 | 16.0 | 24.0 | 0.00 | 0.00 | 0.00 | 47 | 1019.9 |
| 20260901155648 | 86 | 202 | 15.0 | 21.0 | 0.00 | 0.00 | 0.00 | 47 | 1020.0 |
| 20260901155143 | 85 | 211 | 19.0 | 24.0 | 0.00 | 0.00 | 0.00 | 48 | 1020.0 |
| 20260901154638 | 85 | 206 | 17.0 | 22.0 | 0.00 | 0.00 | 0.00 | 49 | 1020.1 |
| 20260901154132 | 84 | 207 | 13.0 | 22.0 | 0.00 | 0.00 | 0.00 | 49 | 1020.2 |
| 20260901153628 | 85 | 202 | 12.0 | 20.0 | 0.00 | 0.00 | 0.00 | 49 | 1020.1 |
| 20260901153127 | 84 | 206 | 15.0 | 20.0 | 0.00 | 0.00 | 0.00 | 50 | 1020.2 |
| 20260901152623 | 84 | 221 | 10.0 | 22.0 | 0.00 | 0.00 | 0.00 | 51 | 1020.1 |
| 20260901152121 | 83 | 211 | 19.0 | 24.0 | 0.00 | 0.00 | 0.00 | 51 | 1020.1 |
| 20260901151617 | 84 | 211 | 14.0 | 20.0 | 0.00 | 0.00 | 0.00 | 50 | 1020.1 |
| 20260901151116 | 82 | 215 | 21.0 | 23.0 | 0.00 | 0.00 | 0.00 | 52 | 1020.1 |
| 20260901150615 | 82 | 212 | 17.0 | 25.0 | 0.00 | 0.00 | 0.00 | 52 | 1020.2 |
| 20260901150113 | 83 | 213 | 15.0 | 20.0 | 0.00 | 0.00 | 0.00 | 52 | 1020.1 |
| 20260901145607 | 83 | 209 | 14.0 | 22.0 | 0.00 | 0.00 | 0.00 | 52 | 1020.2 |
| 20260901145106 | 82 | 216 | 20.0 | 25.0 | 0.00 | 0.00 | 0.00 | 53 | 1020.2 |
| 20260901144602 | 82 | 213 | 12.0 | 19.0 | 0.00 | 0.00 | 0.00 | 52 | 1020.0 |
| 20260901144056 | 81 | 214 | 15.0 | 22.0 | 0.00 | 0.00 | 0.00 | 53 | 1020.1 |
| 20260901143552 | 81 | 211 | 19.0 | 20.0 | 0.00 | 0.00 | 0.00 | 54 | 1020.1 |
| 20260901143049 | 81 | 210 | 16.0 | 18.0 | 0.00 | 0.00 | 0.00 | 54 | 1020.2 |
| 20260901142544 | 80 | 207 | 10.0 | 14.0 | 0.00 | 0.00 | 0.00 | 53 | 1020.4 |
| 20260901142043 | 80 | 210 | 10.0 | 18.0 | 0.00 | 0.00 | 0.00 | 54 | 1020.1 |
| 20260901141538 | 80 | 189 | 8.0 | 17.0 | 0.00 | 0.00 | 0.00 | 53 | 1020.2 |
| 20260901141033 | 79 | 211 | 11.0 | 17.0 | 0.00 | 0.00 | 0.00 | 55 | 1020.2 |
| 20260901140532 | 79 | 212 | 12.0 | 19.0 | 0.00 | 0.00 | 0.00 | 55 | 1020.0 |
| 20260901140027 | 78 | 213 | 12.0 | 14.0 | 0.00 | 0.00 | 0.00 | 56 | 1020.2 |
| 20260901135525 | 77 | 204 | 11.0 | 18.0 | 0.00 | 0.00 | 0.00 | 57 | 1020.5 |
| 20260901135021 | 78 | 212 | 14.0 | 16.0 | 0.00 | 0.00 | 0.00 | 56 | 1020.2 |
| 20260901134517 | 77 | 214 | 15.0 | 15.0 | 0.00 | 0.00 | 0.00 | 56 | 1020.4 |
| 20260901134012 | 76 | 218 | 11.0 | 19.0 | 0.00 | 0.00 | 0.00 | 58 | 1020.2 |
| 20260901133511 | 76 | 204 | 9.0 | 15.0 | 0.00 | 0.00 | 0.00 | 58 | 1020.2 |
| 20260901133010 | 76 | 216 | 13.0 | 16.0 | 0.00 | 0.00 | 0.00 | 58 | 1020.4 |
| 20260901132509 | 76 | 211 | 11.0 | 15.0 | 0.00 | 0.00 | 0.00 | 58 | 1020.4 |
| 20260901132009 | 75 | 201 | 11.0 | 13.0 | 0.00 | 0.00 | 0.00 | 59 | 1020.4 |
| 20260901131503 | 74 | 198 | 9.0 | 12.0 | 0.00 | 0.00 | 0.00 | 59 | 1020.2 |
| 20260901130959 | 74 | 208 | 9.0 | 11.0 | 0.00 | 0.00 | 0.00 | 60 | 1020.5 |
| 20260901130453 | 74 | 202 | 8.0 | 10.0 | 0.00 | 0.00 | 0.00 | 61 | 1020.2 |
| 20260901125950 | 73 | 194 | 6.0 | 9.0 | 0.00 | 0.00 | 0.00 | 61 | 1020.4 |
| 20260901125451 | 73 | 203 | 8.0 | 8.0 | 0.00 | 0.00 | 0.00 | 61 | 1020.2 |
| 20260901124945 | 73 | 203 | 8.0 | 11.0 | 0.00 | 0.00 | 0.00 | 62 | 1020.0 |
| 20260901124440 | 72 | 191 | 11.0 | 12.0 | 0.00 | 0.00 | 0.00 | 62 | 1019.9 |
| 20260901123935 | 72 | 192 | 6.0 | 11.0 | 0.00 | 0.00 | 0.00 | 62 | 1019.9 |
| 20260901123430 | 72 | 184 | 7.0 | 10.0 | 0.00 | 0.00 | 0.00 | 61 | 1019.9 |
| 20260901122928 | 72 | 188 | 5.0 | 11.0 | 0.00 | 0.00 | 0.00 | 61 | 1019.9 |
| 20260901122428 | 72 | 189 | 7.0 | 10.0 | 0.00 | 0.00 | 0.00 | 61 | 1019.6 |
| 20260901121927 | 73 | 194 | 10.0 | 12.0 | 0.00 | 0.00 | 0.00 | 60 | 1019.5 |
| 20260901121422 | 73 | 188 | 10.0 | 12.0 | 0.00 | 0.00 | 0.00 | 60 | 1019.7 |
| 20260901120918 | 73 | 172 | 8.0 | 13.0 | 0.00 | 0.00 | 0.00 | 59 | 1019.7 |
| 20260901120417 | 73 | 194 | 9.0 | 13.0 | 0.00 | 0.00 | 0.00 | 59 | 1019.7 |
| 20260901115913 | 73 | 191 | 8.0 | 11.0 | 0.00 | 0.00 | 0.00 | 59 | 1019.5 |
| 20260901115412 | 73 | 189 | 12.0 | 12.0 | 0.00 | 0.00 | 0.00 | 58 | 1019.5 |
| 20260901114911 | 73 | 194 | 8.0 | 11.0 | 0.00 | 0.00 | 0.00 | 58 | 1019.7 |
| 20260901114406 | 73 | 180 | 6.0 | 9.0 | 0.00 | 0.00 | 0.00 | 58 | 1019.4 |
| 20260901113904 | 73 | 191 | 8.0 | 10.0 | 0.00 | 0.00 | 0.00 | 58 | 1019.2 |
| 20260901113403 | 73 | 178 | 7.0 | 10.0 | 0.00 | 0.00 | 0.00 | 58 | 1019.1 |
| 20260901112858 | 73 | 182 | 8.0 | 11.0 | 0.00 | 0.00 | 0.00 | 58 | 1019.4 |
| 20260901112353 | 73 | 203 | 8.0 | 11.0 | 0.00 | 0.00 | 0.00 | 57 | 1019.5 |
| 20260901111848 | 73 | 205 | 9.0 | 10.0 | 0.00 | 0.00 | 0.00 | 57 | 1019.6 |
| 20260901111346 | 73 | 206 | 8.0 | 12.0 | 0.00 | 0.00 | 0.00 | 57 | 1019.4 |
| 20260901110845 | 73 | 200 | 8.0 | 11.0 | 0.00 | 0.00 | 0.00 | 57 | 1019.2 |
| 20260901110341 | 73 | 172 | 9.0 | 12.0 | 0.00 | 0.00 | 0.00 | 56 | 1019.4 |
| 20260901105837 | 73 | 178 | 9.0 | 11.0 | 0.00 | 0.00 | 0.00 | 57 | 1019.4 |
| 20260901105332 | 73 | 180 | 7.0 | 10.0 | 0.00 | 0.00 | 0.00 | 57 | 1019.0 |
| 20260901104828 | 73 | 173 | 7.0 | 11.0 | 0.00 | 0.00 | 0.00 | 57 | 1019.0 |
| 20260901104323 | 73 | 160 | 10.0 | 12.0 | 0.00 | 0.00 | 0.00 | 57 | 1019.0 |
| 20260901103819 | 73 | 175 | 7.0 | 11.0 | 0.00 | 0.00 | 0.00 | 57 | 1018.9 |
| 20260901103319 | 73 | 172 | 9.0 | 11.0 | 0.00 | 0.00 | 0.00 | 57 | 1019.0 |
| 20260901102814 | 73 | 178 | 6.0 | 13.0 | 0.00 | 0.00 | 0.00 | 57 | 1018.9 |
| 20260901102308 | 72 | 168 | 7.0 | 8.0 | 0.00 | 0.00 | 0.00 | 57 | 1018.8 |
| 20260901101803 | 73 | 166 | 5.0 | 11.0 | 0.00 | 0.00 | 0.00 | 57 | 1019.1 |
| 20260901101258 | 72 | 166 | 9.0 | 10.0 | 0.00 | 0.00 | 0.00 | 58 | 1018.9 |
| 20260901100757 | 72 | 167 | 6.0 | 10.0 | 0.00 | 0.00 | 0.00 | 57 | 1018.9 |
| 20260901100252 | 72 | 160 | 5.0 | 9.0 | 0.00 | 0.00 | 0.00 | 56 | 1018.9 |
| 20260901095750 | 72 | 164 | 6.0 | 10.0 | 0.00 | 0.00 | 0.00 | 56 | 1018.8 |
| 20260901095248 | 73 | 174 | 7.0 | 10.0 | 0.00 | 0.00 | 0.00 | 56 | 1018.9 |
| 20260901094743 | 73 | 170 | 7.0 | 10.0 | 0.00 | 0.00 | 0.00 | 55 | 1018.9 |
| 20260901094238 | 73 | 180 | 4.0 | 8.0 | 0.00 | 0.00 | 0.00 | 55 | 1019.0 |
| 20260901093733 | 73 | 186 | 7.0 | 8.0 | 0.00 | 0.00 | 0.00 | 55 | 1019.0 |
| 20260901093231 | 73 | 173 | 9.0 | 10.0 | 0.00 | 0.00 | 0.00 | 54 | 1018.9 |
| 20260901092728 | 74 | 167 | 9.0 | 11.0 | 0.00 | 0.00 | 0.00 | 54 | 1019.0 |
| 20260901092224 | 74 | 162 | 9.0 | 13.0 | 0.00 | 0.00 | 0.00 | 53 | 1019.1 |
| 20260901091719 | 74 | 171 | 8.0 | 13.0 | 0.00 | 0.00 | 0.00 | 53 | 1019.0 |
| 20260901091214 | 73 | 156 | 6.0 | 13.0 | 0.00 | 0.00 | 0.00 | 53 | 1019.1 |
| 20260901090709 | 74 | 161 | 11.0 | 15.0 | 0.00 | 0.00 | 0.00 | 52 | 1018.8 |
| 20260901090204 | 74 | 159 | 10.0 | 13.0 | 0.00 | 0.00 | 0.00 | 53 | 1018.8 |
| 20260901085700 | 74 | 158 | 9.0 | 15.0 | 0.00 | 0.00 | 0.00 | 52 | 1018.7 |
| 20260901085155 | 75 | 148 | 9.0 | 17.0 | 0.00 | 0.00 | 0.00 | 51 | 1019.0 |
| 20260901084652 | 75 | 154 | 11.0 | 16.0 | 0.00 | 0.00 | 0.00 | 51 | 1018.8 |
| 20260901084148 | 74 | 157 | 13.0 | 15.0 | 0.00 | 0.00 | 0.00 | 51 | 1018.8 |
| 20260901083647 | 75 | 156 | 10.0 | 16.0 | 0.00 | 0.00 | 0.00 | 51 | 1018.7 |
| 20260901083146 | 75 | 155 | 12.0 | 16.0 | 0.00 | 0.00 | 0.00 | 50 | 1018.7 |
| 20260901082640 | 75 | 158 | 11.0 | 13.0 | 0.00 | 0.00 | 0.00 | 50 | 1018.6 |
| 20260901082136 | 75 | 163 | 9.0 | 15.0 | 0.00 | 0.00 | 0.00 | 50 | 1018.8 |
| 20260901081631 | 75 | 153 | 9.0 | 15.0 | 0.00 | 0.00 | 0.00 | 49 | 1018.8 |
| 20260901081125 | 76 | 155 | 11.0 | 17.0 | 0.00 | 0.00 | 0.00 | 49 | 1018.7 |
| 20260901080620 | 76 | 153 | 11.0 | 15.0 | 0.00 | 0.00 | 0.00 | 49 | 1018.6 |
| 20260901080118 | 77 | 148 | 12.0 | 17.0 | 0.00 | 0.00 | 0.00 | 48 | 1018.7 |
| 20260901075614 | 77 | 147 | 12.0 | 17.0 | 0.00 | 0.00 | 0.00 | 48 | 1018.9 |
| 20260901075114 | 77 | 154 | 14.0 | 17.0 | 0.00 | 0.00 | 0.00 | 48 | 1018.9 |
| 20260901074608 | 77 | 155 | 15.0 | 16.0 | 0.00 | 0.00 | 0.00 | 48 | 1019.1 |
| 20260901074103 | 77 | 163 | 15.0 | 17.0 | 0.00 | 0.00 | 0.00 | 48 | 1018.8 |
| 20260901073600 | 77 | 147 | 12.0 | 15.0 | 0.00 | 0.00 | 0.00 | 48 | 1018.9 |
| 20260901073059 | 77 | 157 | 13.0 | 16.0 | 0.00 | 0.00 | 0.00 | 48 | 1018.8 |
| 20260901072555 | 77 | 147 | 12.0 | 15.0 | 0.00 | 0.00 | 0.00 | 48 | 1018.9 |
| 20260901072049 | 77 | 136 | 10.0 | 16.0 | 0.00 | 0.00 | 0.00 | 48 | 1018.7 |
| 20260901071544 | 77 | 146 | 15.0 | 15.0 | 0.00 | 0.00 | 0.00 | 47 | 1018.9 |
| 20260901071042 | 77 | 146 | 10.0 | 15.0 | 0.00 | 0.00 | 0.00 | 48 | 1019.0 |
| 20260901070538 | 77 | 148 | 9.0 | 17.0 | 0.00 | 0.00 | 0.00 | 48 | 1018.9 |
| 20260901070033 | 77 | 159 | 9.0 | 14.0 | 0.00 | 0.00 | 0.00 | 47 | 1019.2 |
| 20260901065527 | 77 | 148 | 9.0 | 15.0 | 0.00 | 0.00 | 0.00 | 47 | 1019.0 |
| 20260901065021 | 77 | 149 | 11.0 | 14.0 | 0.00 | 0.00 | 0.00 | 47 | 1018.9 |
| 20260901064518 | 77 | 144 | 9.0 | 14.0 | 0.00 | 0.00 | 0.00 | 47 | 1019.4 |
| 20260901064015 | 77 | 152 | 9.0 | 14.0 | 0.00 | 0.00 | 0.00 | 47 | 1019.2 |
| 20260901063512 | 77 | 158 | 9.0 | 12.0 | 0.00 | 0.00 | 0.00 | 47 | 1019.1 |
| 20260901063008 | 77 | 144 | 9.0 | 14.0 | 0.00 | 0.00 | 0.00 | 47 | 1019.2 |
| 20260901062503 | 77 | 153 | 7.0 | 11.0 | 0.00 | 0.00 | 0.00 | 48 | 1019.0 |
| 20260901061959 | 76 | 145 | 6.0 | 13.0 | 0.00 | 0.00 | 0.00 | 48 | 1019.1 |
| 20260901061454 | 77 | 159 | 9.0 | 12.0 | 0.00 | 0.00 | 0.00 | 48 | 1019.2 |
| 20260901060949 | 77 | 154 | 8.0 | 13.0 | 0.00 | 0.00 | 0.00 | 47 | 1018.9 |
| 20260901060444 | 77 | 153 | 11.0 | 12.0 | 0.00 | 0.00 | 0.00 | 48 | 1018.9 |
| 20260901055944 | 77 | 143 | 8.0 | 11.0 | 0.00 | 0.00 | 0.00 | 48 | 1019.0 |
| 20260901055440 | 77 | 156 | 7.0 | 11.0 | 0.00 | 0.00 | 0.00 | 48 | 1019.1 |
| 20260901054937 | 77 | 147 | 9.0 | 11.0 | 0.00 | 0.00 | 0.00 | 48 | 1018.9 |
| 20260901054434 | 76 | 148 | 8.0 | 10.0 | 0.00 | 0.00 | 0.00 | 49 | 1019.1 |
| 20260901053929 | 77 | 150 | 10.0 | 11.0 | 0.00 | 0.00 | 0.00 | 48 | 1019.0 |
| 20260901053425 | 77 | 145 | 8.0 | 13.0 | 0.00 | 0.00 | 0.00 | 48 | 1019.1 |
| 20260901052920 | 77 | 148 | 7.0 | 11.0 | 0.00 | 0.00 | 0.00 | 48 | 1019.0 |
| 20260901052415 | 78 | 155 | 9.0 | 11.0 | 0.00 | 0.00 | 0.00 | 47 | 1019.1 |
| 20260901051914 | 78 | 147 | 9.0 | 11.0 | 0.00 | 0.00 | 0.00 | 48 | 1019.2 |
| 20260901051410 | 78 | 136 | 8.0 | 11.0 | 0.00 | 0.00 | 0.00 | 48 | 1019.0 |
| 20260901050904 | 78 | 151 | 8.0 | 10.0 | 0.00 | 0.00 | 0.00 | 48 | 1019.1 |
| 20260901050400 | 78 | 154 | 8.0 | 12.0 | 0.00 | 0.00 | 0.00 | 47 | 1019.0 |
| 20260901045900 | 78 | 152 | 7.0 | 11.0 | 0.00 | 0.00 | 0.00 | 47 | 1018.8 |
| 20260901045354 | 78 | 157 | 8.0 | 13.0 | 0.00 | 0.00 | 0.00 | 47 | 1019.0 |
| 20260901044850 | 78 | 157 | 8.0 | 12.0 | 0.00 | 0.00 | 0.00 | 47 | 1018.9 |
| 20260901044346 | 78 | 158 | 7.0 | 14.0 | 0.00 | 0.00 | 0.00 | 47 | 1019.1 |
| 20260901043841 | 78 | 144 | 11.0 | 13.0 | 0.00 | 0.00 | 0.00 | 47 | 1019.0 |
| 20260901043337 | 78 | 148 | 9.0 | 13.0 | 0.00 | 0.00 | 0.00 | 47 | 1018.6 |
| 20260901042837 | 78 | 149 | 9.0 | 13.0 | 0.00 | 0.00 | 0.00 | 47 | 1018.8 |
| 20260901042331 | 78 | 153 | 5.0 | 11.0 | 0.00 | 0.00 | 0.00 | 47 | 1018.8 |
| 20260901041827 | 78 | 138 | 8.0 | 12.0 | 0.00 | 0.00 | 0.00 | 47 | 1018.9 |
| 20260901041322 | 79 | 155 | 9.0 | 10.0 | 0.00 | 0.00 | 0.00 | 47 | 1018.9 |
| 20260901040821 | 79 | 146 | 8.0 | 13.0 | 0.00 | 0.00 | 0.00 | 46 | 1018.8 |
| 20260901040320 | 79 | 150 | 6.0 | 11.0 | 0.00 | 0.00 | 0.00 | 46 | 1018.7 |
| 20260901035815 | 79 | 157 | 8.0 | 12.0 | 0.00 | 0.00 | 0.00 | 45 | 1018.8 |
| 20260901035314 | 79 | 144 | 7.0 | 11.0 | 0.00 | 0.00 | 0.00 | 45 | 1018.5 |
| 20260901034812 | 80 | 155 | 6.0 | 12.0 | 0.00 | 0.00 | 0.00 | 44 | 1018.7 |
| 20260901034308 | 80 | 157 | 6.0 | 11.0 | 0.00 | 0.00 | 0.00 | 44 | 1018.6 |
| 20260901033802 | 80 | 147 | 9.0 | 9.0 | 0.00 | 0.00 | 0.00 | 44 | 1018.6 |
| 20260901033301 | 80 | 136 | 6.0 | 9.0 | 0.00 | 0.00 | 0.00 | 44 | 1018.7 |
| 20260901032759 | 80 | 151 | 6.0 | 11.0 | 0.00 | 0.00 | 0.00 | 44 | 1018.2 |
| 20260901032254 | 81 | 141 | 5.0 | 10.0 | 0.00 | 0.00 | 0.00 | 43 | 1018.2 |
| 20260901031749 | 80 | 142 | 5.0 | 10.0 | 0.00 | 0.00 | 0.00 | 43 | 1018.4 |
| 20260901031244 | 80 | 142 | 7.0 | 10.0 | 0.00 | 0.00 | 0.00 | 43 | 1018.1 |
| 20260901030739 | 80 | 144 | 4.0 | 9.0 | 0.00 | 0.00 | 0.00 | 43 | 1018.2 |
| 20260901030234 | 81 | 142 | 6.0 | 10.0 | 0.00 | 0.00 | 0.00 | 42 | 1018.0 |
| 20260901025728 | 81 | 139 | 7.0 | 10.0 | 0.00 | 0.00 | 0.00 | 42 | 1017.9 |
| 20260901025223 | 80 | 143 | 5.0 | 9.0 | 0.00 | 0.00 | 0.00 | 43 | 1017.7 |
| 20260901024717 | 80 | 132 | 9.0 | 11.0 | 0.00 | 0.00 | 0.00 | 43 | 1017.7 |
| 20260901024217 | 81 | 146 | 6.0 | 7.0 | 0.00 | 0.00 | 0.00 | 42 | 1017.6 |
| 20260901023715 | 81 | 133 | 4.0 | 9.0 | 0.00 | 0.00 | 0.00 | 42 | 1017.7 |
| 20260901023210 | 82 | 139 | 6.0 | 8.0 | 0.00 | 0.00 | 0.00 | 41 | 1017.5 |
| 20260901022706 | 82 | 150 | 6.0 | 9.0 | 0.00 | 0.00 | 0.00 | 41 | 1017.3 |
| 20260901022201 | 83 | 159 | 6.0 | 11.0 | 0.00 | 0.00 | 0.00 | 40 | 1017.3 |
| 20260901021656 | 83 | 150 | 8.0 | 9.0 | 0.00 | 0.00 | 0.00 | 40 | 1017.1 |
| 20260901021151 | 83 | 161 | 6.0 | 9.0 | 0.00 | 0.00 | 0.00 | 40 | 1017.1 |
| 20260901020647 | 83 | 151 | 6.0 | 7.0 | 0.00 | 0.00 | 0.00 | 40 | 1017.1 |
| 20260901020142 | 84 | 148 | 8.0 | 10.0 | 0.00 | 0.00 | 0.00 | 39 | 1017.0 |
| 20260901015637 | 84 | 160 | 7.0 | 11.0 | 0.00 | 0.00 | 0.00 | 39 | 1016.9 |
| 20260901015137 | 84 | 158 | 6.0 | 8.0 | 0.00 | 0.00 | 0.00 | 38 | 1016.8 |
| 20260901014632 | 84 | 161 | 7.0 | 8.0 | 0.00 | 0.00 | 0.00 | 39 | 1016.8 |
| 20260901014128 | 84 | 167 | 4.0 | 7.0 | 0.00 | 0.00 | 0.00 | 39 | 1016.9 |
| 20260901013624 | 84 | 161 | 7.0 | 8.0 | 0.00 | 0.00 | 0.00 | 38 | 1016.6 |
| 20260901013120 | 85 | 160 | 5.0 | 7.0 | 0.00 | 0.00 | 0.00 | 38 | 1016.9 |
| 20260901012619 | 85 | 156 | 6.0 | 8.0 | 0.00 | 0.00 | 0.00 | 37 | 1016.8 |
| 20260901012114 | 85 | 166 | 6.0 | 7.0 | 0.00 | 0.00 | 0.00 | 37 | 1016.6 |
| 20260901011610 | 86 | 164 | 7.0 | 9.0 | 0.00 | 0.00 | 0.00 | 37 | 1016.6 |
| 20260901011108 | 86 | 168 | 9.0 | 10.0 | 0.00 | 0.00 | 0.00 | 36 | 1016.9 |
| 20260901010603 | 87 | 158 | 6.0 | 7.0 | 0.00 | 0.00 | 0.00 | 34 | 1016.7 |
| 20260901005557 | 89 | 147 | 10.0 | 11.0 | 0.00 | 0.00 | 0.00 | 33 | 1016.3 |
| 20260901005052 | 89 | 157 | 11.0 | 16.0 | 0.00 | 0.00 | 0.00 | 33 | 1016.3 |
| 20260901004552 | 89 | 161 | 9.0 | 16.0 | 0.00 | 0.00 | 0.00 | 33 | 1016.5 |
| 20260901004047 | 90 | 157 | 9.0 | 12.0 | 0.00 | 0.00 | 0.00 | 33 | 1016.6 |
| 20260901003542 | 90 | 171 | 8.0 | 13.0 | 0.00 | 0.00 | 0.00 | 32 | 1016.3 |
| 20260901003040 | 91 | 161 | 9.0 | 14.0 | 0.00 | 0.00 | 0.00 | 31 | 1016.5 |
| 20260901002540 | 91 | 159 | 9.0 | 12.0 | 0.00 | 0.00 | 0.00 | 31 | 1016.5 |
| 20260901002035 | 91 | 158 | 13.0 | 16.0 | 0.00 | 0.00 | 0.00 | 30 | 1016.2 |
| 20260901001531 | 91 | 148 | 11.0 | 15.0 | 0.00 | 0.00 | 0.00 | 31 | 1016.6 |
| 20260901001026 | 91 | 159 | 9.0 | 16.0 | 0.00 | 0.00 | 0.00 | 30 | 1016.5 |
| 20260901000526 | 92 | 153 | 15.0 | 17.0 | 0.00 | 0.00 | 0.00 | 30 | 1016.5 |
| 20260901000022 | 92 | 150 | 11.0 | 20.0 | 0.00 | 0.00 | 0.00 | 31 | 1016.6 |
| 20260831235515 | 93 | 157 | 14.0 | 15.0 | 0.00 | 0.00 | 0.00 | 31 | 1016.5 |
| 20260831235011 | 93 | 160 | 11.0 | 14.0 | 0.00 | 0.00 | 0.00 | 30 | 1016.5 |
| 20260831234505 | 93 | 171 | 11.0 | 18.0 | 0.00 | 0.00 | 0.00 | 31 | 1016.6 |
| 20260831234001 | 93 | 158 | 13.0 | 16.0 | 0.00 | 0.00 | 0.00 | 31 | 1016.5 |
| 20260831233456 | 93 | 170 | 11.0 | 17.0 | 0.00 | 0.00 | 0.00 | 31 | 1016.5 |
| 20260831232951 | 93 | 169 | 11.0 | 17.0 | 0.00 | 0.00 | 0.00 | 31 | 1016.3 |
| 20260831232447 | 93 | 150 | 11.0 | 16.0 | 0.00 | 0.00 | 0.00 | 30 | 1016.6 |
| 20260831231943 | 93 | 163 | 15.0 | 18.0 | 0.00 | 0.00 | 0.00 | 30 | 1016.5 |
| 20260831231439 | 94 | 164 | 10.0 | 17.0 | 0.00 | 0.00 | 0.00 | 30 | 1016.5 |
| 20260831230934 | 93 | 168 | 6.0 | 13.0 | 0.00 | 0.00 | 0.00 | 30 | 1016.5 |
| 20260831230434 | 93 | 159 | 9.0 | 13.0 | 0.00 | 0.00 | 0.00 | 30 | 1016.9 |
| 20260831225929 | 94 | 162 | 11.0 | 16.0 | 0.00 | 0.00 | 0.00 | 29 | 1016.7 |
| 20260831225425 | 93 | 156 | 11.0 | 19.0 | 0.00 | 0.00 | 0.00 | 29 | 1016.8 |
| 20260831224920 | 95 | 162 | 13.0 | 15.0 | 0.00 | 0.00 | 0.00 | 28 | 1016.9 |
| 20260831224420 | 94 | 149 | 6.0 | 13.0 | 0.00 | 0.00 | 0.00 | 28 | 1016.9 |
| 20260831223914 | 95 | 165 | 11.0 | 13.0 | 0.00 | 0.00 | 0.00 | 27 | 1016.8 |
| 20260831223410 | 95 | 169 | 9.0 | 16.0 | 0.00 | 0.00 | 0.00 | 28 | 1016.8 |
| 20260831222907 | 94 | 159 | 5.0 | 11.0 | 0.00 | 0.00 | 0.00 | 30 | 1016.7 |
| 20260831222402 | 94 | 157 | 4.0 | 10.0 | 0.00 | 0.00 | 0.00 | 29 | 1016.9 |
| 20260831221857 | 95 | 156 | 5.0 | 9.0 | 0.00 | 0.00 | 0.00 | 28 | 1016.8 |
| 20260831221353 | 95 | 163 | 15.0 | 16.0 | 0.00 | 0.00 | 0.00 | 28 | 1016.8 |
| 20260831220848 | 94 | 162 | 9.0 | 14.0 | 0.00 | 0.00 | 0.00 | 28 | 1017.1 |
| 20260831220343 | 93 | 154 | 6.0 | 13.0 | 0.00 | 0.00 | 0.00 | 30 | 1016.9 |
| 20260831215838 | 96 | 167 | 10.0 | 14.0 | 0.00 | 0.00 | 0.00 | 27 | 1016.9 |
| 20260831215334 | 94 | 152 | 11.0 | 13.0 | 0.00 | 0.00 | 0.00 | 28 | 1017.0 |
| 20260831214830 | 93 | 151 | 8.0 | 20.0 | 0.00 | 0.00 | 0.00 | 30 | 1017.0 |
| 20260831214328 | 93 | 125 | 12.0 | 13.0 | 0.00 | 0.00 | 0.00 | 30 | 1016.8 |
| 20260831213822 | 94 | 155 | 7.0 | 14.0 | 0.00 | 0.00 | 0.00 | 29 | 1017.0 |
| 20260831213319 | 94 | 221 | 7.0 | 16.0 | 0.00 | 0.00 | 0.00 | 28 | 1017.0 |
| 20260831212814 | 95 | 199 | 14.0 | 20.0 | 0.00 | 0.00 | 0.00 | 29 | 1016.9 |
| 20260831212310 | 93 | 161 | 6.0 | 15.0 | 0.00 | 0.00 | 0.00 | 30 | 1017.2 |
| 20260831211803 | 95 | 160 | 9.0 | 15.0 | 0.00 | 0.00 | 0.00 | 28 | 1017.5 |
| 20260831211258 | 93 | 168 | 12.0 | 13.0 | 0.00 | 0.00 | 0.00 | 29 | 1017.6 |
| 20260831210752 | 94 | 170 | 8.0 | 16.0 | 0.00 | 0.00 | 0.00 | 30 | 1017.5 |
| 20260831210249 | 94 | 132 | 14.0 | 24.0 | 0.00 | 0.00 | 0.00 | 30 | 1017.6 |